SWA850 KRDU-KBNA

Flight info

Callsign SWA850
Flight time 1h 22m
Altitude 40000
Route SHPRD4 SHPRD EDDDY SWFFT3
Aircraft B38M/M-SADE2E3GHIJ4J7P2RWZ/LB1D1

Departure

Time 2026-05-07 23:43
Airport Raleigh-Durham International Airport (KRDU)

Arrival

Time 2026-05-08 01:05
Airport Nashville International Airport (KBNA)
Time Latitude Longitude Altitude Speed Heading
2026-05-07 23:28 35.87931 -78.79200 0 ft 0 kts 134°
2026-05-07 23:33 35.87938 -78.79209 393 ft 2 kts 119°
2026-05-07 23:34 35.87950 -78.79234 272 ft 4 kts 120°
2026-05-07 23:34 35.87966 -78.79259 330 ft 4 kts 149°
2026-05-07 23:34 35.87980 -78.79262 393 ft 1 kts 206°
2026-05-07 23:34 35.87984 -78.79260 393 ft 0 kts 206°
2026-05-07 23:38 35.87971 -78.79268 362 ft 7 kts 208°
2026-05-07 23:38 35.87921 -78.79318 393 ft 11 kts 226°
2026-05-07 23:39 35.87860 -78.79394 391 ft 15 kts 225°
2026-05-07 23:39 35.87776 -78.79498 387 ft 20 kts 225°
2026-05-07 23:39 35.87698 -78.79594 385 ft 15 kts 226°
2026-05-07 23:39 35.87620 -78.79690 381 ft 5 kts 224°
2026-05-07 23:40 35.87581 -78.79737 379 ft 10 kts 224°
2026-05-07 23:40 35.87521 -78.79810 379 ft 14 kts 224°
2026-05-07 23:40 35.87446 -78.79901 378 ft 17 kts 225°
2026-05-07 23:40 35.87359 -78.80010 377 ft 13 kts 231°
2026-05-07 23:41 35.87362 -78.80058 378 ft 5 kts 299°
2026-05-07 23:41 35.87384 -78.80096 379 ft 6 kts 310°
2026-05-07 23:41 35.87418 -78.80140 379 ft 8 kts 313°
2026-05-07 23:41 35.87474 -78.80163 379 ft 10 kts 30°
2026-05-07 23:42 35.87535 -78.80082 379 ft 21 kts 46°
2026-05-07 23:42 35.87827 -78.79720 387 ft 97 kts 44°
2026-05-07 23:42 35.88458 -78.78944 399 ft 158 kts 46°
2026-05-07 23:42 35.89302 -78.77895 812 ft 179 kts 46°
2026-05-07 23:43 35.90194 -78.76790 1674 ft 183 kts 49°
2026-05-07 23:43 35.91128 -78.75601 2326 ft 204 kts 47°
2026-05-07 23:43 35.92171 -78.74306 2912 ft 228 kts 49°
2026-05-07 23:43 35.93294 -78.72921 3922 ft 225 kts 52°
2026-05-07 23:44 35.94412 -78.71543 5005 ft 233 kts 53°
2026-05-07 23:44 35.95608 -78.70056 5617 ft 255 kts 53°
2026-05-07 23:44 35.96939 -78.68401 6275 ft 275 kts 53°
2026-05-07 23:44 35.98336 -78.66665 6933 ft 294 kts 51°
2026-05-07 23:45 35.99781 -78.64884 7762 ft 302 kts 48°
2026-05-07 23:45 36.01550 -78.63451 8454 ft 320 kts 18°
2026-05-07 23:45 36.03741 -78.63206 9445 ft 310 kts 344°
2026-05-07 23:45 36.05668 -78.64228 10397 ft 296 kts 315°
2026-05-07 23:46 36.06938 -78.66190 10885 ft 296 kts 288°
2026-05-07 23:46 36.07228 -78.68691 11445 ft 300 kts 262°
2026-05-07 23:46 36.06515 -78.71132 12212 ft 306 kts 243°
2026-05-07 23:46 36.05454 -78.73344 13012 ft 308 kts 248°
2026-05-07 23:47 36.04552 -78.75849 13825 ft 313 kts 249°
2026-05-07 23:47 36.03639 -78.78307 14576 ft 317 kts 249°
2026-05-07 23:47 36.02717 -78.80744 15376 ft 320 kts 249°
2026-05-07 23:47 36.01756 -78.83259 16075 ft 325 kts 250°
2026-05-07 23:48 36.00780 -78.85808 16779 ft 329 kts 250°
2026-05-07 23:48 35.99789 -78.88376 17450 ft 334 kts 251°
2026-05-07 23:48 35.98779 -78.90988 18087 ft 339 kts 251°
2026-05-07 23:48 35.98093 -78.92765 18508 ft 342 kts 251°
2026-05-07 23:49 35.96726 -78.96296 19335 ft 347 kts 250°
2026-05-07 23:49 35.95681 -78.98997 20000 ft 349 kts 250°
2026-05-07 23:49 35.94982 -79.00797 20417 ft 351 kts 249°
2026-05-07 23:49 35.93921 -79.03528 21001 ft 355 kts 249°
2026-05-07 23:50 35.92848 -79.06281 21586 ft 358 kts 249°
2026-05-07 23:50 35.91765 -79.09059 22143 ft 361 kts 248°
2026-05-07 23:50 35.90669 -79.11865 22694 ft 364 kts 248°
2026-05-07 23:50 35.89567 -79.14682 23205 ft 368 kts 248°
2026-05-07 23:51 35.88451 -79.17535 23722 ft 371 kts 247°
2026-05-07 23:51 35.87323 -79.20413 24202 ft 374 kts 247°
2026-05-07 23:51 35.86184 -79.23317 24691 ft 377 kts 246°
2026-05-07 23:51 35.85036 -79.26237 25171 ft 380 kts 246°
2026-05-07 23:52 35.83947 -79.29207 25603 ft 382 kts 254°
2026-05-07 23:52 35.83501 -79.32431 26053 ft 383 kts 265°
2026-05-07 23:52 35.83208 -79.35721 26385 ft 388 kts 264°
2026-05-07 23:52 35.82914 -79.39034 26840 ft 390 kts 264°
2026-05-07 23:53 35.82638 -79.42329 27236 ft 393 kts 264°
2026-05-07 23:53 35.82369 -79.45700 27624 ft 396 kts 264°
2026-05-07 23:53 35.82105 -79.49089 28017 ft 399 kts 264°
2026-05-07 23:53 35.81841 -79.52501 28393 ft 401 kts 264°
2026-05-07 23:54 35.81313 -79.55886 28739 ft 404 kts 258°
2026-05-07 23:54 35.80694 -79.59272 29083 ft 407 kts 258°
2026-05-07 23:54 35.80095 -79.62675 29426 ft 409 kts 258°
2026-05-07 23:54 35.79499 -79.66138 29756 ft 412 kts 259°
2026-05-07 23:55 35.78911 -79.69598 30203 ft 411 kts 259°
2026-05-07 23:55 35.78339 -79.72975 30683 ft 410 kts 259°
2026-05-07 23:55 35.77757 -79.76409 31136 ft 408 kts 259°
2026-05-07 23:55 35.77168 -79.79880 31663 ft 405 kts 259°
2026-05-07 23:56 35.76600 -79.83223 32147 ft 403 kts 259°
2026-05-07 23:56 35.76026 -79.86592 32603 ft 401 kts 259°
2026-05-07 23:56 35.75454 -79.89943 33056 ft 399 kts 259°
2026-05-07 23:56 35.74889 -79.93246 33517 ft 397 kts 259°
2026-05-07 23:57 35.74320 -79.96569 33980 ft 394 kts 259°
2026-05-07 23:57 35.73752 -79.99881 34420 ft 392 kts 259°
2026-05-07 23:57 35.73188 -80.03159 34777 ft 391 kts 259°
2026-05-07 23:57 35.72623 -80.06436 35118 ft 391 kts 259°
2026-05-07 23:58 35.72062 -80.09696 35491 ft 389 kts 259°
2026-05-07 23:58 35.71498 -80.12965 35829 ft 389 kts 259°
2026-05-07 23:58 35.70944 -80.16165 36130 ft 388 kts 259°
2026-05-07 23:58 35.70373 -80.19456 36450 ft 387 kts 259°
2026-05-07 23:59 35.69810 -80.22703 36712 ft 388 kts 259°
2026-05-07 23:59 35.69246 -80.25942 37001 ft 387 kts 258°
2026-05-07 23:59 35.68684 -80.29171 37261 ft 387 kts 258°
2026-05-07 23:59 35.68119 -80.32403 37505 ft 386 kts 258°
2026-05-08 00:00 35.67553 -80.35642 37739 ft 386 kts 258°
2026-05-08 00:00 35.66987 -80.38876 37961 ft 386 kts 258°
2026-05-08 00:00 35.66423 -80.42103 38175 ft 387 kts 258°
2026-05-08 00:00 35.65858 -80.45339 38395 ft 386 kts 260°
2026-05-08 00:01 35.65724 -80.48573 38648 ft 385 kts 274°
2026-05-08 00:01 35.65978 -80.51867 38794 ft 387 kts 272°
2026-05-08 00:01 35.66181 -80.55164 38938 ft 387 kts 273°
2026-05-08 00:01 35.66424 -80.58468 39103 ft 388 kts 274°
2026-05-08 00:02 35.66684 -80.61766 39286 ft 387 kts 274°
2026-05-08 00:02 35.66955 -80.65049 39541 ft 385 kts 274°
2026-05-08 00:02 35.67232 -80.68311 39838 ft 382 kts 274°
2026-05-08 00:02 35.67508 -80.71548 39960 ft 380 kts 274°
2026-05-08 00:03 35.68052 -80.77930 39945 ft 372 kts 274°
2026-05-08 00:03 35.68590 -80.84260 39941 ft 372 kts 274°
2026-05-08 00:04 35.69124 -80.90604 39939 ft 372 kts 274°
2026-05-08 00:04 35.69655 -80.96942 39938 ft 372 kts 274°
2026-05-08 00:05 35.70181 -81.03251 39962 ft 368 kts 275°
2026-05-08 00:05 35.70698 -81.09505 39962 ft 367 kts 275°
2026-05-08 00:06 35.71210 -81.15721 39970 ft 367 kts 275°
2026-05-08 00:06 35.71714 -81.21915 39965 ft 367 kts 274°
2026-05-08 00:07 35.72228 -81.28248 39970 ft 368 kts 274°
2026-05-08 00:07 35.72733 -81.34513 39971 ft 368 kts 274°
2026-05-08 00:08 35.73235 -81.40783 39968 ft 368 kts 274°
2026-05-08 00:08 35.73734 -81.47043 39965 ft 367 kts 274°
2026-05-08 00:09 35.74228 -81.53304 39967 ft 368 kts 274°
2026-05-08 00:09 35.74719 -81.59552 39966 ft 368 kts 274°
2026-05-08 00:10 35.75209 -81.65854 39966 ft 368 kts 274°
2026-05-08 00:10 35.75696 -81.72121 39962 ft 368 kts 274°
2026-05-08 00:11 35.76179 -81.78392 39969 ft 368 kts 274°
2026-05-08 00:11 35.76654 -81.84620 39967 ft 368 kts 274°
2026-05-08 00:12 35.77130 -81.90897 39967 ft 368 kts 274°
2026-05-08 00:12 35.77604 -81.97174 39964 ft 368 kts 274°
2026-05-08 00:13 35.78071 -82.03425 39960 ft 370 kts 274°
2026-05-08 00:13 35.78536 -82.09694 39976 ft 371 kts 274°
2026-05-08 00:14 35.79011 -82.16122 39948 ft 372 kts 274°
2026-05-08 00:14 35.79478 -82.22496 39964 ft 374 kts 274°
2026-05-08 00:15 35.79937 -82.28772 40008 ft 365 kts 272°
2026-05-08 00:15 35.80377 -82.34892 39963 ft 354 kts 272°
2026-05-08 00:16 35.80809 -82.40933 39966 ft 353 kts 272°
2026-05-08 00:16 35.81237 -82.46960 39963 ft 352 kts 272°
2026-05-08 00:17 35.81661 -82.52956 39956 ft 350 kts 272°
2026-05-08 00:17 35.82079 -82.58922 39969 ft 350 kts 272°
2026-05-08 00:18 35.82495 -82.64898 39969 ft 350 kts 272°
2026-05-08 00:18 35.82908 -82.70872 39978 ft 349 kts 272°
2026-05-08 00:19 35.83316 -82.76835 39974 ft 350 kts 272°
2026-05-08 00:19 35.83721 -82.82782 39972 ft 351 kts 272°
2026-05-08 00:20 35.84125 -82.88739 39929 ft 350 kts 272°
2026-05-08 00:20 35.84529 -82.94753 39984 ft 351 kts 271°
2026-05-08 00:21 35.84927 -83.00717 39939 ft 352 kts 271°
2026-05-08 00:21 35.85323 -83.06720 39963 ft 347 kts 271°
2026-05-08 00:22 35.85714 -83.12687 39949 ft 349 kts 271°
2026-05-08 00:22 35.86103 -83.18665 39961 ft 351 kts 271°
2026-05-08 00:23 35.86490 -83.24636 39964 ft 348 kts 271°
2026-05-08 00:23 35.86869 -83.30567 39962 ft 350 kts 271°
2026-05-08 00:24 35.87248 -83.36524 39962 ft 349 kts 271°
2026-05-08 00:24 35.87622 -83.42452 39965 ft 349 kts 271°
2026-05-08 00:25 35.87997 -83.48432 40022 ft 351 kts 270°
2026-05-08 00:25 35.88371 -83.54463 40021 ft 353 kts 271°
2026-05-08 00:26 35.88744 -83.60489 40018 ft 352 kts 270°
2026-05-08 00:26 35.89115 -83.66520 40020 ft 353 kts 270°
2026-05-08 00:27 35.89478 -83.72512 40022 ft 352 kts 270°
2026-05-08 00:27 35.89842 -83.78547 40020 ft 353 kts 270°
2026-05-08 00:28 35.90203 -83.84579 40020 ft 352 kts 270°
2026-05-08 00:28 35.90272 -83.90574 40002 ft 347 kts 258°
2026-05-08 00:29 35.89343 -83.96420 40003 ft 347 kts 259°
2026-05-08 00:29 35.88400 -84.02256 40020 ft 348 kts 258°
2026-05-08 00:30 35.87438 -84.08114 40019 ft 348 kts 258°
2026-05-08 00:30 35.86473 -84.13961 40020 ft 348 kts 258°
2026-05-08 00:31 35.85507 -84.19809 40021 ft 348 kts 258°
2026-05-08 00:31 35.84536 -84.25666 39780 ft 348 kts 258°
2026-05-08 00:32 35.84052 -84.28572 39564 ft 345 kts 258°
2026-05-08 00:32 35.83573 -84.31450 38690 ft 343 kts 258°
2026-05-08 00:32 35.83094 -84.34323 37633 ft 345 kts 257°
2026-05-08 00:32 35.82613 -84.37208 36629 ft 348 kts 257°
2026-05-08 00:33 35.82126 -84.40119 35703 ft 356 kts 257°
2026-05-08 00:33 35.81616 -84.43166 34890 ft 359 kts 256°
2026-05-08 00:33 35.81109 -84.46187 34130 ft 362 kts 256°
2026-05-08 00:33 35.80595 -84.49243 33379 ft 364 kts 256°
2026-05-08 00:34 35.80083 -84.52284 32784 ft 361 kts 256°
2026-05-08 00:34 35.79569 -84.55332 32191 ft 364 kts 256°
2026-05-08 00:34 35.79050 -84.58402 31581 ft 365 kts 256°
2026-05-08 00:34 35.78546 -84.61383 30985 ft 362 kts 256°
2026-05-08 00:35 35.78030 -84.64427 30387 ft 359 kts 256°
2026-05-08 00:35 35.77520 -84.67433 29780 ft 356 kts 256°
2026-05-08 00:35 35.77026 -84.70340 29193 ft 348 kts 256°
2026-05-08 00:35 35.76534 -84.73228 28611 ft 343 kts 256°
2026-05-08 00:36 35.76039 -84.76132 28030 ft 340 kts 256°
2026-05-08 00:36 35.75557 -84.78964 27463 ft 337 kts 256°
2026-05-08 00:36 35.75087 -84.81705 26917 ft 334 kts 256°
2026-05-08 00:36 35.74597 -84.84562 26353 ft 329 kts 257°
2026-05-08 00:37 35.74133 -84.87262 25830 ft 325 kts 257°
2026-05-08 00:37 35.73664 -84.89990 25287 ft 320 kts 257°
2026-05-08 00:37 35.73213 -84.92614 24783 ft 315 kts 257°
2026-05-08 00:38 35.72317 -84.97807 23799 ft 304 kts 257°
2026-05-08 00:38 35.71880 -85.00336 23328 ft 299 kts 258°
2026-05-08 00:38 35.71451 -85.02815 22877 ft 292 kts 258°
2026-05-08 00:38 35.71033 -85.05226 22462 ft 284 kts 258°
2026-05-08 00:39 35.70615 -85.07631 22017 ft 291 kts 258°
2026-05-08 00:39 35.70190 -85.10081 21580 ft 295 kts 258°
2026-05-08 00:39 35.69904 -85.11726 21297 ft 296 kts 258°
2026-05-08 00:39 35.69329 -85.15040 20730 ft 296 kts 259°
2026-05-08 00:40 35.69044 -85.16681 20449 ft 296 kts 259°
2026-05-08 00:40 35.68468 -85.19951 20057 ft 294 kts 259°
2026-05-08 00:40 35.68015 -85.22414 19989 ft 296 kts 258°
2026-05-08 00:40 35.67562 -85.24890 19938 ft 296 kts 259°
2026-05-08 00:41 35.67256 -85.26561 19910 ft 296 kts 258°
2026-05-08 00:41 35.66813 -85.28980 19876 ft 296 kts 258°
2026-05-08 00:41 35.66357 -85.31464 19838 ft 296 kts 258°
2026-05-08 00:41 35.65914 -85.33878 19667 ft 294 kts 258°
2026-05-08 00:42 35.65456 -85.36372 19474 ft 294 kts 259°
2026-05-08 00:42 35.65005 -85.38822 19286 ft 293 kts 259°
2026-05-08 00:42 35.64554 -85.41266 19109 ft 293 kts 259°
2026-05-08 00:42 35.64109 -85.43685 18932 ft 292 kts 259°
2026-05-08 00:43 35.63661 -85.46109 18762 ft 292 kts 259°
2026-05-08 00:43 35.63212 -85.48542 18593 ft 291 kts 259°
2026-05-08 00:43 35.62763 -85.50966 18427 ft 291 kts 259°
2026-05-08 00:43 35.62314 -85.53388 18258 ft 290 kts 259°
2026-05-08 00:44 35.61866 -85.55801 18104 ft 289 kts 259°
2026-05-08 00:44 35.61426 -85.58172 17953 ft 290 kts 259°
2026-05-08 00:44 35.60970 -85.60629 17797 ft 290 kts 259°
2026-05-08 00:44 35.60520 -85.63045 17641 ft 290 kts 259°
2026-05-08 00:45 35.60084 -85.65388 17517 ft 286 kts 258°
2026-05-08 00:45 35.59642 -85.67750 17372 ft 282 kts 258°
2026-05-08 00:45 35.59191 -85.70156 17222 ft 281 kts 258°
2026-05-08 00:45 35.58765 -85.72436 17101 ft 281 kts 258°
2026-05-08 00:46 35.58323 -85.74803 16959 ft 281 kts 258°
2026-05-08 00:46 35.57885 -85.77140 16830 ft 281 kts 258°
2026-05-08 00:46 35.57445 -85.79487 16699 ft 282 kts 258°
2026-05-08 00:46 35.57003 -85.81833 16483 ft 281 kts 258°
2026-05-08 00:47 35.56564 -85.84167 16168 ft 280 kts 258°
2026-05-08 00:47 35.56125 -85.86504 15797 ft 280 kts 258°
2026-05-08 00:47 35.55793 -85.88866 15304 ft 282 kts 268°
2026-05-08 00:47 35.56157 -85.91241 14863 ft 287 kts 288°
2026-05-08 00:48 35.57223 -85.93342 14490 ft 295 kts 303°
2026-05-08 00:48 35.58542 -85.95224 14099 ft 294 kts 304°
2026-05-08 00:48 35.59882 -85.97103 13836 ft 294 kts 304°
2026-05-08 00:48 35.61251 -85.98981 13788 ft 291 kts 305°
2026-05-08 00:49 35.62596 -86.00787 13697 ft 283 kts 305°
2026-05-08 00:49 35.63946 -86.02617 13585 ft 295 kts 305°
2026-05-08 00:49 35.65306 -86.04466 13480 ft 300 kts 306°
2026-05-08 00:49 35.66750 -86.06419 13369 ft 304 kts 306°
2026-05-08 00:50 35.68179 -86.08334 13267 ft 304 kts 306°
2026-05-08 00:50 35.69611 -86.10257 13162 ft 304 kts 306°
2026-05-08 00:50 35.71028 -86.12187 13057 ft 302 kts 303°
2026-05-08 00:50 35.72262 -86.14261 12957 ft 300 kts 301°
2026-05-08 00:51 35.73490 -86.16346 12840 ft 301 kts 301°
2026-05-08 00:51 35.74726 -86.18423 12721 ft 301 kts 301°
2026-05-08 00:51 35.75967 -86.20496 12611 ft 301 kts 301°
2026-05-08 00:51 35.77195 -86.22540 12495 ft 301 kts 301°
2026-05-08 00:52 35.78442 -86.24612 12379 ft 301 kts 302°
2026-05-08 00:52 35.79660 -86.26700 12247 ft 298 kts 296°
2026-05-08 00:52 35.80306 -86.29063 12111 ft 290 kts 274°
2026-05-08 00:52 35.80087 -86.31503 11988 ft 288 kts 252°
2026-05-08 00:53 35.79274 -86.33768 11926 ft 290 kts 246°
2026-05-08 00:53 35.78369 -86.35992 11887 ft 291 kts 246°
2026-05-08 00:53 35.77450 -86.38242 11279 ft 297 kts 246°
2026-05-08 00:53 35.76523 -86.40521 10590 ft 296 kts 245°
2026-05-08 00:54 35.75610 -86.42785 9865 ft 294 kts 245°
2026-05-08 00:54 35.74709 -86.45040 9134 ft 292 kts 246°
2026-05-08 00:54 35.73811 -86.47274 8399 ft 291 kts 246°
2026-05-08 00:54 35.72906 -86.49496 7741 ft 289 kts 246°
2026-05-08 00:55 35.72013 -86.51648 7241 ft 281 kts 246°
2026-05-08 00:55 35.71115 -86.53759 6730 ft 275 kts 246°
2026-05-08 00:55 35.70235 -86.55826 6247 ft 270 kts 246°
2026-05-08 00:55 35.69632 -86.57962 5725 ft 264 kts 268°
2026-05-08 00:56 35.69931 -86.60150 5400 ft 254 kts 298°
2026-05-08 00:56 35.71040 -86.61725 5574 ft 239 kts 324°
2026-05-08 00:56 35.72349 -86.62794 5824 ft 221 kts 326°
2026-05-08 00:56 35.73633 -86.63827 5550 ft 216 kts 326°
2026-05-08 00:57 35.74840 -86.64797 5476 ft 204 kts 326°
2026-05-08 00:57 35.75977 -86.65717 5388 ft 198 kts 326°
2026-05-08 00:57 35.77174 -86.66688 5366 ft 209 kts 326°
2026-05-08 00:57 35.78418 -86.67700 5303 ft 215 kts 326°
2026-05-08 00:58 35.79670 -86.68721 5231 ft 214 kts 326°
2026-05-08 00:58 35.80891 -86.69720 5105 ft 206 kts 326°
2026-05-08 00:58 35.82043 -86.70663 5002 ft 194 kts 326°
2026-05-08 00:58 35.83166 -86.71584 4963 ft 192 kts 326°
2026-05-08 00:59 35.84286 -86.72500 4986 ft 194 kts 326°
2026-05-08 00:59 35.85410 -86.73420 5001 ft 194 kts 326°
2026-05-08 00:59 35.86557 -86.74361 4944 ft 203 kts 326°
2026-05-08 00:59 35.87753 -86.75243 4755 ft 208 kts 340°
2026-05-08 01:00 35.89210 -86.75402 4513 ft 212 kts
2026-05-08 01:00 35.90665 -86.74979 4311 ft 212 kts 14°
2026-05-08 01:00 35.92051 -86.74451 4141 ft 208 kts 15°
2026-05-08 01:00 35.93423 -86.73911 3971 ft 209 kts 17°
2026-05-08 01:01 35.94819 -86.73358 3724 ft 210 kts 17°
2026-05-08 01:01 35.96211 -86.72800 3479 ft 211 kts 18°
2026-05-08 01:01 35.97607 -86.72241 3233 ft 210 kts 19°
2026-05-08 01:01 35.98977 -86.71693 3027 ft 204 kts 20°
2026-05-08 01:02 36.00318 -86.71157 2794 ft 200 kts 21°
2026-05-08 01:02 36.01615 -86.70637 2575 ft 197 kts 22°
2026-05-08 01:02 36.02894 -86.70124 2321 ft 187 kts 21°
2026-05-08 01:02 36.04051 -86.69665 2090 ft 166 kts 20°
2026-05-08 01:03 36.05132 -86.69228 1900 ft 160 kts 19°
2026-05-08 01:03 36.06179 -86.68806 1678 ft 156 kts 19°
2026-05-08 01:03 36.07205 -86.68394 1479 ft 154 kts 19°
2026-05-08 01:03 36.08225 -86.67988 1349 ft 154 kts 18°
2026-05-08 01:04 36.09246 -86.67588 1076 ft 153 kts 18°
2026-05-08 01:04 36.10253 -86.67165 850 ft 153 kts 18°
2026-05-08 01:04 36.11269 -86.66763 657 ft 154 kts 17°
2026-05-08 01:04 36.12191 -86.66399 579 ft 106 kts 20°
2026-05-08 01:05 36.12666 -86.66211 571 ft 58 kts 15°
2026-05-08 01:05 36.12991 -86.66116 559 ft 20 kts 324°
2026-05-08 01:05 36.13021 -86.66161 564 ft 0 kts 287°
2026-05-08 01:05 36.13023 -86.66168 565 ft 0 kts 286°
2026-05-08 01:07 36.13021 -86.66193 565 ft 4 kts 245°
2026-05-08 01:07 36.12987 -86.66219 568 ft 11 kts 205°
2026-05-08 01:07 36.12902 -86.66258 565 ft 14 kts 199°
2026-05-08 01:08 36.12806 -86.66296 568 ft 14 kts 195°
2026-05-08 01:08 36.12740 -86.66320 573 ft 8 kts 199°
2026-05-08 01:08 36.12667 -86.66351 575 ft 13 kts 199°
2026-05-08 01:08 36.12580 -86.66387 576 ft 14 kts 198°
2026-05-08 01:09 36.12473 -86.66429 571 ft 17 kts 198°
2026-05-08 01:09 36.12359 -86.66475 574 ft 16 kts 198°
2026-05-08 01:09 36.12288 -86.66541 578 ft 10 kts 260°
2026-05-08 01:09 36.12296 -86.66596 581 ft 2 kts 289°
2026-05-08 01:10 36.12303 -86.66619 580 ft 9 kts 291°
2026-05-08 01:10 36.12328 -86.66707 585 ft 12 kts 286°
2026-05-08 01:10 36.12352 -86.66809 584 ft 13 kts 291°
2026-05-08 01:10 36.12413 -86.66908 585 ft 16 kts 314°
2026-05-08 01:11 36.12501 -86.66937 584 ft 14 kts 26°
2026-05-08 01:11 36.12595 -86.66928 582 ft 15 kts 321°
2026-05-08 01:11 36.12616 -86.66982 582 ft 6 kts 256°
2026-05-08 01:11 36.12593 -86.67030 583 ft 7 kts 230°
2026-05-08 01:12 36.12580 -86.67049 583 ft 0 kts 229°